[[{"header":{"parameterUnit":"m.s-1","parameterCategory":1,"la1":30.2991,"la2":30.254,"lo1":-89.0895,"lo2":-89.0444,"dy":0.0017,"dx":0.0017,"nx":28,"ny":28,"refTime":"2024-08-10T03:00:00:Z","depth":0,"parameterNumber":2,"parameterNumberName":"U-component_of_WINDS"},"data":[0,0,0,0,0,0,0,0,0,0,0,0,0,0,0,0,0,0,0,0,0,0,0,0,0,0,0,0,0,0,0,0,0,0,0,0,0,0,0,0,0,0,0,0,0,0,0,0,0,0,0,0,0,0,0,0,0,0,2.1179,2.118,0,2.1307,2.1309,2.131,2.1335,2.1334,2.1332,2.1331,2.1464,2.1468,2.1472,0,0,0,0,0,0,0,0,0,0,0,0,0,2.0955,2.0959,2.1179,2.1181,2.1182,2.1307,2.1309,2.1311,2.1335,2.1333,2.1332,2.1331,2.1462,2.1467,2.1473,0,0,0,0,0,0,0,0,0,0,0,0,0,2.1064,2.096,2.1179,2.1209,2.1213,2.1307,2.1309,2.1311,2.1335,2.1333,2.1332,2.133,2.146,2.1467,2.1473,2.1546,0,0,2.1494,2.1497,0,0,0,0,0,0,0,0,2.1058,2.1073,2.1203,2.1207,2.1212,2.1303,2.1278,2.139,2.1335,2.1289,2.1331,2.133,2.1412,2.1422,2.145,2.1552,2.1558,2.1495,2.1499,2.1502,2.1503,0,0,0,0,0,0,0,2.1051,2.1067,2.123,2.1205,2.121,2.1217,2.123,2.13,2.1357,2.1293,2.1295,2.131,2.1414,2.1443,2.1453,2.156,2.1494,2.15,2.1504,2.1507,2.1726,2.1728,0,0,0,0,0,0,2.1038,2.1061,2.1226,2.1234,2.113,2.1222,2.1237,2.1276,2.1357,2.1367,2.1311,2.131,2.1432,2.1445,2.1458,2.1546,2.1501,2.1508,2.1512,2.1725,2.1727,2.1729,0,0,0,0,0,0,2.1033,2.1052,2.1221,2.1148,2.117,2.1227,2.127,2.1279,2.1308,2.137,2.1381,2.133,2.1432,2.1448,2.1523,2.1551,2.1511,2.1517,2.1722,2.1725,2.1728,2.1725,0,0,0,0,0,0,2.1026,2.105,2.1078,2.1148,2.1174,2.1284,2.1272,2.1283,2.132,2.132,2.1391,2.1402,2.1432,2.1513,2.153,2.156,2.1522,2.172,2.1724,2.1727,2.1723,2.1727,2.1731,0,0,0,0,0,2.1018,2.1073,2.1079,2.1099,2.121,2.1286,2.13,2.1333,2.1322,2.135,2.139,2.1399,2.1546,2.1521,2.154,2.1572,2.1719,2.1723,2.1727,2.1721,2.1726,2.1731,0,0,0,0,0,0,2.1004,2.1082,2.1091,2.117,2.1221,2.1289,2.1326,2.1338,2.1394,2.1392,2.1432,2.1447,2.152,2.1554,2.1524,2.1646,2.1631,2.164,2.162,2.1626,2.163,2.162,2.1528,0,0,0,0,0,2.1011,2.1066,2.1131,2.1194,2.1219,2.1268,2.1303,2.1324,2.1379,2.14,2.1446,2.1498,2.1556,2.1593,2.165,2.1728,2.1743,2.176,2.1764,2.1767,2.1773,2.1816,2.1823,2.1742,2.1742,2.1742,0,0,2.1024,2.1073,2.1106,2.1193,2.1235,2.129,2.1286,2.1346,2.1387,2.141,2.1482,2.1518,2.1579,2.1655,2.1692,2.1686,2.1799,2.1772,2.1774,2.1779,2.1821,2.1828,2.1835,2.1745,2.1744,2.1744,0,0,2.1076,2.112,2.1176,2.1219,2.1282,2.1314,2.1328,2.1395,2.1419,2.1493,2.151,2.1561,2.166,2.1703,2.1737,2.1805,2.1815,2.1823,2.1844,2.1885,2.1891,2.1897,2.192,2.1928,2.1829,2.1829,2.1829,0,2.1084,2.1169,2.1204,2.1263,2.13,2.1322,2.138,2.1419,2.1498,2.1523,2.1516,2.164,2.1684,2.177,2.1786,2.1814,2.183,2.1814,2.1887,2.1894,2.19,2.1922,2.193,2.1829,2.1829,2.1829,2.1829,0,2.1175,2.1234,2.1272,2.1347,2.1389,2.1447,2.149,2.1529,2.1547,2.1579,2.1654,2.1707,2.1774,2.1796,2.1815,2.1885,2.1879,2.1879,2.1866,2.1907,2.1928,2.1937,2.183,2.183,2.183,2.183,0,0,2.1221,2.1315,2.1329,2.1362,2.1434,2.148,2.1539,2.1604,2.1635,2.169,2.1739,2.1822,2.1822,2.1862,2.1885,2.1921,2.197,2.1917,2.1919,2.1924,2.2049,2.2047,2.2056,2.1978,2.198,2.1981,2.2043,0,2.1281,2.1386,2.1419,2.1506,2.156,2.1583,2.1634,2.1683,2.1715,2.1766,2.1802,2.1859,2.1856,2.188,2.1917,2.1956,2.1995,2.1952,2.2023,2.2025,2.2005,2.2068,2.2067,2.2123,2.2052,2.2054,2.2055,0,2.1364,2.1419,2.1511,2.1575,2.1599,2.1644,2.1706,2.1755,2.1811,2.1832,2.1876,2.1896,2.1958,2.1942,2.2027,2.1996,2.2028,2.2051,2.2054,2.2061,2.2041,2.2075,2.2142,2.2149,2.2069,2.2067,2.2066,0,2.1386,2.1483,2.1551,2.1579,2.1657,2.1687,2.1721,2.1776,2.1813,2.1868,2.1892,2.1953,2.1986,2.2033,2.2069,2.2054,2.2151,2.2138,2.2169,2.2168,2.2187,2.2185,2.2258,2.221,2.221,2.2209,2.2209,0,2.1448,2.1503,2.1562,2.1603,2.1665,2.1703,2.1764,2.1799,2.1848,2.1896,2.192,2.1965,2.2011,2.2061,2.209,2.2155,2.2171,2.2189,2.2196,2.2186,2.2183,2.2206,2.2202,2.2212,2.2211,2.2211,2.221,0,2.1483,2.1524,2.1599,2.1666,2.1684,2.1727,2.1784,2.1825,2.1858,2.1919,2.1936,2.1988,2.2049,2.209,2.2169,2.2188,2.2258,2.2265,2.2239,2.2242,2.227,2.2266,2.2359,2.2372,2.2316,2.2317,2.2317,0,2.1519,2.1562,2.1633,2.1667,2.17,2.1755,2.1793,2.1832,2.187,2.1937,2.197,2.2032,2.2084,2.2181,2.2226,2.2286,2.2293,2.2321,2.2302,2.2291,2.2292,2.2288,2.2292,2.2324,2.2324,2.2325,2.2325,0,2.1577,2.1596,2.1649,2.1709,2.1753,2.1803,2.1853,2.1879,2.1927,2.1969,2.2031,2.2071,2.2151,2.2212,2.2276,2.2311,2.2326,2.2331,2.2341,2.233,2.2313,2.2321,2.2245,2.2328,2.2328,2.2328,2.2327,2.2327,2.1613,2.1651,2.1707,2.1766,2.1807,2.1853,2.1894,2.1933,2.1986,2.2053,2.2074,2.2138,2.2193,2.228,2.2316,2.2367,2.2364,2.2379,2.2383,2.2386,2.2385,2.2306,2.2379,2.2379,2.2379,2.2379,2.2379,0,2.1671,2.1708,2.1762,2.183,2.1876,2.1886,2.1942,2.1979,2.2036,2.2086,2.2136,2.2207,2.2267,2.2317,2.2378,2.2409,2.2418,2.2424,2.2421,2.2429,2.2384,2.2368,2.2416,2.2416,2.2416,2.2416,2.2416,2.2416,2.1707,2.1772,2.1797,2.1884,2.1921,2.1984,2.2014,2.2057,2.2097,2.2175,2.2224,2.2256,2.2306,2.2372,2.2427,2.244,2.2461,2.2465,2.248,2.2437,2.2432,2.2428,2.2413,2.247,2.247,2.252,2.252,2.2521]},{"header":{"parameterUnit":"m.s-1","parameterCategory":1,"la1":30.2991,"la2":30.254,"lo1":-89.0895,"lo2":-89.0444,"dy":0.0017,"dx":0.0017,"nx":28,"ny":28,"refTime":"2024-08-10T03:00:00:Z","depth":0,"parameterNumber":3,"parameterNumberName":"V-component_of_WINDS"},"data":[0,0,0,0,0,0,0,0,0,0,0,0,0,0,0,0,0,0,0,0,0,0,0,0,0,0,0,0,0,0,0,0,0,0,0,0,0,0,0,0,0,0,0,0,0,0,0,0,0,0,0,0,0,0,0,0,0,0,2.8351,2.8351,0,2.8322,2.8321,2.8321,2.8266,2.8265,2.8264,2.8263,2.8232,2.8232,2.8232,0,0,0,0,0,0,0,0,0,0,0,0,0,2.8358,2.8358,2.8351,2.8351,2.835,2.8322,2.8321,2.8321,2.8266,2.8265,2.8264,2.8262,2.8232,2.8232,2.8232,0,0,0,0,0,0,0,0,0,0,0,0,0,2.8344,2.8358,2.8351,2.832,2.8317,2.8322,2.8321,2.8321,2.8267,2.8265,2.8263,2.8262,2.8232,2.8232,2.8232,2.8265,0,0,2.8233,2.8233,0,0,0,0,0,0,0,0,2.8345,2.8344,2.8325,2.8322,2.8318,2.8296,2.8312,2.8302,2.8267,2.8286,2.8263,2.8261,2.8254,2.8252,2.825,2.8263,2.8262,2.8233,2.8233,2.8233,2.8233,0,0,0,0,0,0,0,2.8346,2.8345,2.8339,2.8324,2.8321,2.8306,2.8303,2.831,2.8279,2.8284,2.828,2.8277,2.8252,2.825,2.8249,2.8262,2.8233,2.8233,2.8233,2.8233,2.8297,2.8299,0,0,0,0,0,0,2.8352,2.8346,2.834,2.8338,2.8328,2.8308,2.8303,2.8305,2.8279,2.8273,2.8278,2.8275,2.8251,2.8249,2.8248,2.8282,2.8233,2.8233,2.8233,2.8296,2.8298,2.8299,0,0,0,0,0,0,2.8352,2.8352,2.8341,2.8341,2.8339,2.8309,2.8311,2.8305,2.8303,2.8275,2.8269,2.8282,2.8249,2.8248,2.826,2.8281,2.8233,2.8233,2.8294,2.8296,2.8298,2.8354,0,0,0,0,0,0,2.8353,2.8353,2.8365,2.8342,2.8339,2.8356,2.8312,2.8306,2.8304,2.8298,2.8277,2.8272,2.8248,2.826,2.8261,2.828,2.8234,2.8292,2.8295,2.8298,2.835,2.8358,2.8364,0,0,0,0,0,2.8353,2.8383,2.8366,2.8366,2.8355,2.8357,2.8355,2.8327,2.8306,2.8318,2.8299,2.8272,2.8279,2.8262,2.8262,2.8282,2.829,2.8294,2.8297,2.8347,2.8356,2.8364,0,0,0,0,0,0,2.8409,2.8379,2.8361,2.8383,2.8373,2.8348,2.8362,2.8339,2.8334,2.8329,2.8295,2.8291,2.8307,2.8296,2.8278,2.8311,2.828,2.8284,2.8318,2.8326,2.8334,2.8335,2.8234,0,0,0,0,0,2.8424,2.8429,2.8402,2.8425,2.842,2.8392,2.8392,2.8372,2.836,2.8355,2.8337,2.8326,2.8325,2.8325,2.8323,2.8348,2.8342,2.8362,2.8369,2.8375,2.8378,2.8388,2.8396,2.8311,2.8311,2.8311,0,0,2.8455,2.8439,2.8444,2.8436,2.8425,2.843,2.8389,2.8396,2.8399,2.8356,2.8366,2.8353,2.8338,2.8357,2.8364,2.8348,2.84,2.838,2.8385,2.8384,2.8392,2.84,2.8408,2.8313,2.8313,2.8312,0,0,2.8513,2.8503,2.8519,2.8509,2.8494,2.8475,2.8479,2.8457,2.8446,2.8456,2.8423,2.8426,2.8426,2.8416,2.8411,2.8463,2.8438,2.8464,2.8501,2.8511,2.8517,2.8523,2.854,2.8547,2.8467,2.8467,2.8467,0,2.8554,2.856,2.8531,2.8539,2.8535,2.8497,2.8512,2.8504,2.8489,2.8486,2.8469,2.8466,2.8454,2.8468,2.848,2.8478,2.848,2.8465,2.8519,2.8524,2.8529,2.8545,2.8551,2.847,2.847,2.847,2.8469,0,2.8609,2.8614,2.8629,2.8615,2.8613,2.8625,2.8596,2.8597,2.8577,2.8559,2.8569,2.8552,2.8545,2.8547,2.8528,2.8558,2.8548,2.8525,2.8493,2.8541,2.8555,2.8561,2.8475,2.8474,2.8473,2.8472,0,0,2.8701,2.867,2.8676,2.8668,2.8648,2.865,2.866,2.8653,2.8654,2.8644,2.865,2.865,2.8628,2.8623,2.8601,2.861,2.865,2.8586,2.8585,2.8597,2.868,2.8697,2.8704,2.8634,2.8635,2.8636,2.8681,0,2.8754,2.8769,2.8742,2.8763,2.8766,2.8728,2.8736,2.8724,2.8708,2.8707,2.8688,2.8688,2.8661,2.8656,2.8664,2.8644,2.8666,2.8641,2.8637,2.8638,2.8641,2.8712,2.8729,2.8773,2.8686,2.8687,2.8688,0,2.8817,2.881,2.8831,2.8808,2.8808,2.8816,2.8806,2.8806,2.8791,2.8778,2.8771,2.8746,2.8752,2.8722,2.8729,2.8712,2.8709,2.8699,2.87,2.8698,2.8665,2.8709,2.8786,2.8792,2.8697,2.8696,2.8695,0,2.888,2.8876,2.8887,2.8882,2.8856,2.8862,2.8851,2.8834,2.8831,2.8822,2.8819,2.8812,2.8807,2.8801,2.8774,2.8755,2.8783,2.8751,2.8771,2.8772,2.8778,2.8778,2.8854,2.8779,2.8779,2.8779,2.8778,0,2.894,2.8954,2.8915,2.8922,2.8936,2.8904,2.8919,2.8904,2.8889,2.8891,2.8859,2.8862,2.8826,2.8824,2.8803,2.8811,2.881,2.8798,2.8792,2.88,2.8801,2.8797,2.8792,2.878,2.878,2.878,2.8779,0,2.9012,2.8987,2.8996,2.897,2.8964,2.8975,2.8952,2.8957,2.8938,2.8941,2.894,2.891,2.8907,2.8879,2.8869,2.8855,2.887,2.8859,2.8875,2.8871,2.8891,2.8889,2.8966,2.8973,2.8895,2.8896,2.8897,0,2.9051,2.9061,2.9035,2.9035,2.9025,2.9025,2.9021,2.8991,2.8988,2.897,2.8977,2.897,2.8963,2.8959,2.8936,2.8928,2.8915,2.8942,2.8913,2.8921,2.8913,2.8912,2.8912,2.8948,2.8949,2.895,2.8951,0,2.9123,2.911,2.9106,2.9097,2.9094,2.9086,2.9076,2.9077,2.9042,2.9041,2.9037,2.9031,2.9021,2.9014,2.9002,2.8989,2.8964,2.896,2.8964,2.8971,2.898,2.8974,2.889,2.8958,2.8957,2.8957,2.8956,2.8956,2.9178,2.9184,2.9167,2.9163,2.9152,2.9143,2.9146,2.9127,2.9123,2.9112,2.9094,2.9092,2.9075,2.9055,2.9045,2.9042,2.9027,2.9033,2.9034,2.9036,2.9039,2.8982,2.9039,2.9039,2.9039,2.9039,2.9038,0,2.9247,2.9234,2.9231,2.9217,2.9214,2.9191,2.9178,2.9176,2.9175,2.9161,2.9155,2.9149,2.9142,2.9118,2.9108,2.911,2.9098,2.9109,2.9108,2.9105,2.9054,2.9051,2.9119,2.9119,2.9119,2.9119,2.9118,2.9118,2.9282,2.929,2.9275,2.9277,2.9263,2.9261,2.9256,2.9246,2.9235,2.923,2.9224,2.9209,2.919,2.9178,2.917,2.9163,2.916,2.9174,2.9163,2.9116,2.9108,2.9101,2.9098,2.9174,2.9175,2.9214,2.9214,2.9215]}]]